Weather History for KBLV - April, 2013

Change the Weather History Date:

Saturday, April 27, 2013

  Actual Average Record
Temperature  
Mean Temperature 52 °F -  
Max Temperature 55 °F 72 °F 89 °F (1989)
Min Temperature 49 °F 49 °F 34 °F (1967)
Degree Days  
Heating Degree Days 13    
Growing Degree Days 2 (Base 50)    
Moisture  
Dew Point 53 °F    
Average Humidity 99    
Maximum Humidity 100    
Minimum Humidity 87    
Precipitation  
Precipitation 0.29 in - - ()
Sea Level Pressure  
Sea Level Pressure 30.05 in    
Wind  
Wind Speed 4 mph (East)    
Max Wind Speed 13 mph    
Max Gust Speed -    
Visibility 5 miles    
Events Rain    
Averages and records for this station are not official NWS values.
T = Trace of Precipitation, MM = Missing Value Source: NWS Daily Summary

Daily Weather History Graph

Daily Weather History Graph

Search for Another Location

Airport or City:

Trip Planner

Search our weather history database for the weather conditions in past years. The results will help you decide how hot, cold, wet, or windy it might be!

Date:

Astronomy

Apr. 27, 2013 Rise Set
Actual Time 6:06 AM CDT 7:47 PM CDT
Civil Twilight 5:38 AM CDT 8:16 PM CDT
Nautical Twilight 5:04 AM CDT 8:50 PM CDT
Astronomical Twilight 4:28 AM CDT 9:26 PM CDT
Moon 10:15 PM CDT (4/27) 7:26 AM CDT (4/27)
Length of Visible Light 14h 37m
Length of Day
13h 40m
Waning Gibbous, 95% of the Moon is Illuminated
Apr 27
Waning Gibbous
May 2
Last Quarter
May 9
New
May 17
First Quarter
May 24
Full

Hourly Weather History & Observations

Time (CDT) Temp. Dew Point Humidity Pressure Visibility Wind Dir Wind Speed Gust Speed Precip Events Conditions
12:58 AM 50.5 °F 46.9 °F 87% 30.30 in 10.0 mi South 6.9 mph - N/A   Overcast
1:58 AM 50.4 °F 48.0 °F 92% 30.28 in 10.0 mi SE 4.6 mph - N/A   Overcast
2:48 AM 50.0 °F 48.2 °F 94% 30.25 in 9.0 mi ESE 3.5 mph - N/A   Overcast
2:58 AM 50.0 °F 49.1 °F 97% 30.25 in 10.0 mi ESE 3.5 mph - N/A   Overcast
3:03 AM 50.0 °F 50.0 °F 100% 30.24 in 10.0 mi ESE 2.3 mph - N/A Rain Light Rain
3:12 AM 50.0 °F 50.0 °F 100% 30.24 in 9.0 mi SE 2.3 mph - N/A   Overcast
3:27 AM 50.0 °F 48.2 °F 94% 30.24 in 5.0 mi SE 2.3 mph - N/A   Overcast
3:30 AM 50.0 °F 48.2 °F 94% 30.24 in 5.0 mi SE 3.5 mph - N/A   Light Drizzle
3:54 AM 50.0 °F 48.2 °F 94% 30.23 in 5.0 mi East 3.5 mph - N/A   Overcast
3:58 AM 49.1 °F 48.9 °F 99% 30.23 in 5.0 mi East 3.5 mph - 0.01 in   Overcast
4:13 AM 50.0 °F 48.2 °F 94% 30.23 in 10.0 mi ENE 1.2 mph - N/A   Overcast
4:43 AM 50.0 °F 50.0 °F 100% 30.21 in 9.0 mi ENE 5.8 mph - N/A   Overcast
4:58 AM 49.1 °F 49.1 °F 100% 30.21 in 8.0 mi ENE 5.8 mph - N/A   Overcast
5:08 AM 50.0 °F 50.0 °F 100% 30.20 in 10.0 mi ENE 5.8 mph - N/A   Overcast
5:58 AM 49.6 °F 49.3 °F 99% 30.21 in 10.0 mi Variable 1.2 mph - N/A   Overcast
6:58 AM 50.0 °F 49.6 °F 99% 30.20 in 8.0 mi NE 4.6 mph - N/A   Overcast
7:13 AM 50.0 °F 50.0 °F 100% 30.19 in 8.0 mi East 4.6 mph - N/A   Overcast
7:53 AM 50.0 °F 50.0 °F 100% 30.19 in 7.0 mi East 5.8 mph - N/A   Overcast
7:58 AM 50.5 °F 50.2 °F 99% 30.20 in 7.0 mi East 5.8 mph - N/A   Overcast
8:28 AM 51.8 °F 50.0 °F 94% 30.18 in 10.0 mi East 8.1 mph - N/A   Overcast
8:58 AM 51.1 °F 50.9 °F 99% 30.17 in 10.0 mi East 6.9 mph - N/A   Overcast
9:27 AM 51.8 °F 51.8 °F 100% 30.16 in 10.0 mi East 12.7 mph - N/A   Light Drizzle
9:42 AM 51.8 °F 51.8 °F 100% 30.15 in 9.0 mi East 9.2 mph - N/A Rain Light Rain
9:58 AM 51.4 °F 51.1 °F 99% 30.17 in 8.0 mi ESE 8.1 mph - 0.01 in Rain Light Rain
10:58 AM 51.6 °F 51.4 °F 99% 30.15 in 6.0 mi East 10.4 mph - 0.07 in Rain Light Rain
11:13 AM 51.8 °F 51.8 °F 100% 30.14 in 6.0 mi East 5.8 mph - N/A Rain Light Rain
11:28 AM 51.8 °F 51.8 °F 100% 30.14 in 8.0 mi East 5.8 mph - N/A Rain Light Rain
11:33 AM 51.8 °F 51.8 °F 100% 30.14 in 9.0 mi East 6.9 mph - N/A Rain Light Rain
11:43 AM 51.8 °F 51.8 °F 100% 30.14 in 9.0 mi East 5.8 mph - N/A   Light Drizzle
11:58 AM 52.0 °F 51.8 °F 99% 30.14 in 8.0 mi East 5.8 mph - 0.03 in   Light Drizzle
12:07 PM 51.8 °F 51.8 °F 100% 30.13 in 9.0 mi East 6.9 mph - N/A   Overcast
12:58 PM 53.1 °F 52.7 °F 99% 30.12 in 10.0 mi East 4.6 mph - 0.00 in   Overcast
1:58 PM 54.0 °F 53.6 °F 99% 30.09 in 10.0 mi East 5.8 mph - N/A   Overcast
2:58 PM 54.9 °F 54.7 °F 99% 30.06 in 10.0 mi East 6.9 mph - N/A   Overcast
3:58 PM 54.9 °F 54.5 °F 99% 30.04 in 10.0 mi ENE 6.9 mph - N/A   Overcast
4:38 PM 55.4 °F 55.4 °F 100% 30.01 in 4.0 mi ENE 4.6 mph - N/A   Overcast
4:48 PM 55.4 °F 55.4 °F 100% 30.01 in 2.5 mi ESE 4.6 mph - N/A   Overcast
4:53 PM 55.4 °F 55.4 °F 100% 30.01 in 2.0 mi ESE 5.8 mph - N/A   Overcast
4:56 PM 55.4 °F 55.4 °F 100% 30.01 in 2.0 mi East 5.8 mph - N/A Rain Light Rain
4:58 PM 55.0 °F 55.0 °F 100% 30.02 in 2.0 mi East 5.8 mph - N/A Rain Light Rain
5:03 PM 55.4 °F 55.4 °F 100% 30.01 in 1.8 mi ESE 3.5 mph - N/A Rain Light Rain
5:08 PM 55.4 °F 55.4 °F 100% 30.01 in 2.0 mi ESE 2.3 mph - N/A Rain Light Rain
5:13 PM 55.4 °F 55.4 °F 100% 30.00 in 3.0 mi East 2.3 mph - N/A   Light Drizzle
5:17 PM 55.4 °F 55.4 °F 100% 30.00 in 3.0 mi East 3.5 mph - N/A   Overcast
5:22 PM 55.4 °F 55.4 °F 100% 30.00 in 4.0 mi East 4.6 mph - N/A   Overcast
5:42 PM 55.4 °F 55.4 °F 100% 29.98 in 3.0 mi East 6.9 mph - N/A   Overcast
5:47 PM 55.4 °F 55.4 °F 100% 29.98 in 3.0 mi East 5.8 mph - N/A   Overcast
5:52 PM 55.4 °F 55.4 °F 100% 29.97 in 2.5 mi East 5.8 mph - N/A   Overcast
5:58 PM 55.4 °F 55.4 °F 100% 29.99 in 2.5 mi East 5.8 mph - 0.01 in   Overcast
6:03 PM 55.4 °F 55.4 °F 100% 29.98 in 3.0 mi East 6.9 mph - N/A   Overcast
6:13 PM 55.4 °F 55.4 °F 100% 29.98 in 6.0 mi East 5.8 mph - N/A   Overcast
6:33 PM 55.4 °F 55.4 °F 100% 29.97 in 9.0 mi ENE 3.5 mph - N/A   Overcast
6:48 PM 55.4 °F 55.4 °F 100% 29.96 in 9.0 mi ENE 4.6 mph - N/A   Overcast
6:58 PM 54.9 °F 54.9 °F 100% 29.97 in 7.0 mi ENE 4.6 mph - N/A   Overcast
7:03 PM 55.4 °F 55.4 °F 100% 29.95 in 3.0 mi ENE 4.6 mph - N/A   Overcast
7:08 PM 55.4 °F 55.4 °F 100% 29.95 in 2.0 mi ENE 4.6 mph - N/A   Overcast
7:13 PM 55.4 °F 55.4 °F 100% 29.95 in 2.0 mi East 5.8 mph - N/A   Overcast
7:23 PM 55.4 °F 55.4 °F 100% 29.95 in 2.5 mi East 4.6 mph - N/A   Overcast
7:33 PM 55.4 °F 55.4 °F 100% 29.96 in 3.0 mi East 2.3 mph - N/A   Overcast
7:58 PM 54.7 °F 54.7 °F 100% 29.96 in 3.0 mi Calm Calm - N/A   Overcast
8:03 PM 55.4 °F 55.4 °F 100% 29.96 in 2.5 mi SSE 2.3 mph - N/A   Overcast
8:13 PM 55.4 °F 55.4 °F 100% 29.96 in 1.8 mi Calm Calm - N/A   Light Drizzle
8:18 PM 55.4 °F 55.4 °F 100% 29.96 in 1.5 mi Calm Calm - N/A   Light Drizzle
8:23 PM 55.4 °F 55.4 °F 100% 29.95 in 1.5 mi Calm Calm - N/A   Drizzle
8:28 PM 55.4 °F 55.4 °F 100% 29.95 in 1.2 mi Calm Calm - N/A   Drizzle
8:33 PM 55.4 °F 55.4 °F 100% 29.95 in 1.5 mi Calm Calm - N/A   Light Drizzle
8:48 PM 55.4 °F 55.4 °F 100% 29.95 in 1.2 mi Calm Calm - N/A   Drizzle
8:53 PM 55.4 °F 55.4 °F 100% 29.95 in 1.5 mi NNW 2.3 mph - N/A   Drizzle
8:58 PM 54.7 °F 54.7 °F 100% 29.96 in 1.8 mi North 1.2 mph - 0.07 in   Light Drizzle
9:03 PM 55.4 °F 55.4 °F 100% 29.95 in 2.0 mi NW 2.3 mph - N/A Rain Light Rain
9:08 PM 55.4 °F 55.4 °F 100% 29.95 in 1.8 mi Calm Calm - N/A Rain Rain
9:18 PM 55.4 °F 55.4 °F 100% 29.95 in 2.5 mi Calm Calm - N/A Rain Light Rain
9:23 PM 55.4 °F 55.4 °F 100% 29.95 in 3.0 mi Calm Calm - N/A Rain Light Rain
9:28 PM 55.4 °F 55.4 °F 100% 29.95 in 3.0 mi North 1.2 mph - N/A   Light Drizzle
9:43 PM 55.4 °F 55.4 °F 100% 29.94 in 3.0 mi NNW 2.3 mph - N/A Rain Light Rain
9:48 PM 55.4 °F 55.4 °F 100% 29.94 in 2.5 mi Variable 1.2 mph - N/A Rain Light Rain
9:53 PM 55.4 °F 55.4 °F 100% 29.94 in 2.5 mi Calm Calm - N/A   Light Drizzle
9:58 PM 54.5 °F 54.5 °F 100% 29.95 in 3.0 mi North 1.2 mph - 0.08 in   Light Drizzle
10:00 PM 53.6 °F 53.6 °F 100% 29.94 in 3.0 mi NNW 2.3 mph - N/A   Overcast
10:05 PM 53.6 °F 53.6 °F 100% 29.94 in 3.0 mi NNW 2.3 mph - N/A   Overcast
10:10 PM 53.6 °F 53.6 °F 100% 29.94 in 3.0 mi NNW 2.3 mph - N/A   Overcast
10:25 PM 53.6 °F 53.6 °F 100% 29.94 in 3.0 mi Variable 2.3 mph - N/A   Overcast
10:40 PM 53.6 °F 53.6 °F 100% 29.93 in 3.0 mi Variable 2.3 mph - N/A   Overcast
10:58 PM 54.3 °F 54.3 °F 100% 29.93 in 3.0 mi Variable 1.2 mph - 0.01 in   Overcast
11:38 PM 53.6 °F 53.6 °F 100% 29.92 in 5.0 mi Variable 1.2 mph - N/A   Overcast
11:53 PM 53.6 °F 53.6 °F 100% 29.92 in 5.0 mi NNW 3.5 mph - N/A   Overcast
11:58 PM 53.8 °F 53.8 °F 100% 29.93 in 5.0 mi NNW 2.3 mph - N/A   Overcast